Regional Weather Roundup
Issued by NWS

Home | Current Version | Previous Version | Text Only | Print | Product List | Glossary Off
Versions: 1 2 3 4 5 6 7 8 9 10 11 12 13 14 15 16 17 18 19 20 21 22 23 24 25 26 27 28 29 30 31 32 33 34 35 36 37 38 39 40 41 42 43 44 45 46 47 48 49 50

000
ASUS43 KLOT 230206
RWRIL

ILLINOIS REGIONAL WEATHER ROUNDUP
NATIONAL WEATHER SERVICE CHICAGO/ROMEOVILLE IL
900 PM CDT FRI AUG 22 2014

NOTE: "FAIR" INDICATES FEW OR NO CLOUDS BELOW 12,000 FEET WITH NO
SIGNIFICANT WEATHER AND/OR OBSTRUCTIONS TO VISIBILITY.

* THESE STATIONS ARE NOT UNDER NWS QUALITY CONTROL. THEY ALSO MAY NOT
  REPORT WEATHER SUCH AS PRECIPITATION OR FOG.

ILZ001-002-007-009-015-016-024-230300-
NORTHWEST ILLINOIS

CITY           SKY/WX    TMP DP  RH WIND       PRES   REMARKS
MOLINE         CLEAR     79  74  84 CALM      29.96R HX  82
STERLING*      PTCLDY    79  75  89 CALM      29.97R HX  82
SAVANNA*       PTCLDY    80  75  84 SE3       29.96R HX  85
$$

ILZ003-004-008-010-011-017-018-230300-
NORTH CENTRAL ILLINOIS

CITY           SKY/WX    TMP DP  RH WIND       PRES   REMARKS
ROCKFORD       MOCLDY    77  73  87 SW5       29.98R
FREEPORT*      MOCLDY    75  74  95 S3        30.00R
ROCHELLE*      PTCLDY    75  73  93 CALM      29.98R
DE KALB*       PTCLDY    74  72  93 S3        29.99R
PERU*          CLOUDY    79  75  87 S5        29.98R HX  82
$$

ILZ005-006-012>014-019>023-230300-
NORTHEAST ILLINOIS

CITY           SKY/WX    TMP DP  RH WIND       PRES   REMARKS
CHICAGO-OHARE  MOCLDY    80  71  74 SW3       29.96R HX  84
CHICAGO-MIDWAY MOCLDY    82  74  76 SW3       29.96R HX  88
AURORA         PTCLDY    77  72  84 S6        29.97R
LANSING*       PTCLDY    75  73  91 SW3       29.97R
JOLIET*        PTCLDY    76  72  86 CALM      29.97S
WAUKEGAN       CLOUDY    73  72  96 CALM      29.97R FOG
DUPAGE AIRPORT PTCLDY    76  73  91 CALM      29.97R
KANKAKEE*      CLEAR     73  73  97 S3        29.99R
WHEELING       MOCLDY    78  73  84 CALM      29.98R HX  81
MORRIS*        PTCLDY    76  76  99 SE3       29.97R
ROMEOVILLE*    PTCLDY    75  73  93 SW3       29.97R
NORTHERLY ISL    N/A     75  72  90 CALM        N/A
$$

LMZ740>746-230300-
SOUTHERN LAKE MICHIGAN

STATION/POSITION SKY/WX   TEMP    WIND        PRES    VSBY  WAVE
                          AIR SEA DIR/SP/G                  HT/PER
                          (F)     (DEG/KT/KT) (MB)    (MI)  (FT/S)
SOUTHERN BUOY              71 71   20/  4/  4 1014.9R         0
WAUKEGAN HARBOR            73      50/  4/  5   N/A
HARRISON CRIB              75     110/  6/  7   N/A
BURNHAM HARBOR             75     350/  1/  3   N/A
CALUMET HARBOR             80     210/  2/  3 1013.4R
MICHIGAN CITY              78     190/  1/  2   N/A
MICHIGAN CITY 6N           76 75  130/  2/  2   N/A           0
ST. JOSEPH                 74 72   40/  4/  6   N/A           0
$$

ILZ025>027-034>036-040-047-049-050-058-095>099-230300-
WEST-CENTRAL ILLINOIS

CITY           SKY/WX    TMP DP  RH WIND       PRES   REMARKS
QUINCY         CLEAR     80  77  90 NE5       29.94R HX  87
GALESBURG*     PTCLDY    78  75  91 CALM      29.96S HX  80
MACOMB*        MOCLDY    79  77  94 N5        29.97R HX  83
JACKSONVILLE*  PTCLDY    82  79  92 E5        29.96R HX  91
PITTSFIELD*    CLEAR     80  77  89 E3        29.95R HX  87
$$

ILZ028>032-037-038-041>044-048-051>054-059>061-230300-
CENTRAL ILLINOIS

CITY           SKY/WX    TMP DP  RH WIND       PRES   REMARKS
PONTIAC        PTCLDY    75  75 100 E3        29.98R
DECATUR        PTCLDY    79  76  90 E5        29.97R HX  83
PEORIA         PTCLDY    81  74  79 CALM      29.96R HX  86
LACON*         PTCLDY    78  75  89 SE3       29.96R HX  81
LINCOLN*       CLOUDY    80  76  88 CALM      29.94R HX  86
SPRINGFIELD    PTCLDY    80  77  90 CALM      29.96R HX  87
TAYLORVILLE    PTCLDY    79  77  94 SE5       29.97R HX  83
$$

ILZ033-039-045-046-055>057-062-063-230300-
EAST-CENTRAL ILLINOIS

CITY           SKY/WX    TMP DP  RH WIND       PRES   REMARKS
CHAMPAIGN      PTCLDY    76  74  93 E5        29.98R
DANVILLE*      RAIN      72  71  97 CALM      29.96R
RANTOUL*       CLEAR     78  73  85 CALM      30.00R HX  80
MATTOON        CLOUDY    79  77  94 CALM      29.97R HX  83
PARIS*         CLOUDY    76  75  98 CALM      29.99R
$$

ILZ079-100>102-230300-
SOUTHWEST ILLINOIS

CITY           SKY/WX    TMP DP  RH WIND       PRES   REMARKS
ALTON          MOCLDY    81  81 100 E3        29.93S HX  91
BELLEVILLE     MOCLDY    82  81  96 N1        29.93R HX  94
CAHOKIA*       MOCLDY    82  79  90 E3        29.92R HX  92
SPARTA*        CLOUDY    83  76  78 S5        29.95R HX  91
$$

ILZ064>066-069>071-074>076-080>082-084>086-088>090-092>094-230300-
SOUTH-CENTRAL ILLINOIS

CITY           SKY/WX    TMP DP  RH WIND       PRES   REMARKS
CARBONDALE     CLOUDY    82  76  81 S5        29.95R HX  89
CAIRO*         PTCLDY    84  76  77 CALM      29.95R HX  93
MARION         CLOUDY    82  77  83 S3        29.97R HX  91
MT. VERNON     PTCLDY    79  73  83 CALM      29.96R HX  82
CENTRALIA*     PTCLDY    80  76  89 E3        29.96R HX  84
SALEM*         PTCLDY    83  79  89 CALM      29.96R HX  94
METROPOLIS*    MOCLDY    82  73  73 CALM      29.97R HX  88
$$

ILZ067-068-072-073-078-083-087-091-230300-
SOUTHEAST ILLINOIS

CITY           SKY/WX    TMP DP  RH WIND       PRES   REMARKS
LAWRENCEVILLE  CLOUDY    80  78  94 CALM      29.98R FOG     HX  88
FLORA*         PTCLDY    80  78  95 E3        29.97R HX  86
FAIRFIELD*     PTCLDY    81  79  94 CALM      29.96R FOG     HX  89
HARRISBURG*    MOCLDY    80  78  94 SE3       29.98R HX  86
ROBINSON*      RAIN      80  79  96 S3        29.98R HX  88
CARMI*         PTCLDY    81  81 100 CALM      29.96R HX  91
$$

ABBREVIATIONS USED IN REMARKS
   TC - TEMPERATURE IN CELSIUS
  WCI - WIND CHILL INDEX
   HX - HEAT INDEX
  VSB - VISIBILITY
$$




USA.gov is the U.S. government's official web portal to all federal, state and local government web resources and services.